CAPE
0 0 0 0 0 0 0 0 0 0 0 0 0 0 0 0 0 0 0 0 0 0 0 0 0 0 18 3 86 41 3 4 4 0 2 0 1 5 75 160 195 131 194 104 247
0 0 0 0 0 0 0 0 0 0 0 0 0 0 0 0 0 0 0 0 0 0 0 0 0 0 0 0 0 0 0 2 0 0 0 0 0 0 9 66 119 293 426 366 346
0 0 0 0 0 0 0 0 0 0 0 0 0 0 0 0 0 0 0 0 0 0 0 0 0 0 0 0 0 0 0 0 8 9 11 9 7 1 0 14 39 61 156 376 365
0 0 0 0 0 0 0 0 0 0 0 0 0 0 0 0 0 0 0 0 0 0 0 0 0 0 0 0 0 15 29 9 25 52 32 29 12 1 0 5 2 24 150 360 304
0 0 0 0 0 0 0 0 0 0 0 0 0 0 0 0 0 0 0 0 0 0 0 0 0 0 0 0 0 5 31 21 19 45 17 16 11 1 0 107 335 238 263 266 250
0 0 0 0 0 0 0 0 0 0 0 0 0 0 0 0 0 0 0 0 0 0 0 0 0 0 0 0 0 0 2 5 13 7 0 0 6 11 33 434 432 375 317 341 244
0 0 0 0 0 0 0 0 0 0 0 0 0 0 0 0 0 0 0 0 0 0 0 0 0 0 0 0 0 0 15 18 3 8 0 0 0 0 1 439 421 431 385 323 256
0 0 0 0 0 0 0 0 0 0 0 0 0 0 0 0 0 0 0 0 0 0 0 0 0 0 0 0 0 0 0 0 0 0 0 0 0 8 0 209 392 446 434 442 365
0 0 0 0 0 0 0 0 0 0 0 0 0 0 0 0 0 0 0 0 0 0 0 0 0 0 0 0 0 0 0 0 0 0 0 0 0 31 8 16 241 370 402 404 250
0 0 0 0 0 0 0 0 0 0 0 0 0 0 0 0 0 0 0 0 0 0 0 0 0 0 0 0 0 0 0 0 0 0 0 0 0 20 87 113 117 143 173 129 15
0 0 0 0 0 0 0 0 0 0 0 0 0 0 0 0 0 0 0 0 0 0 0 0 0 0 0 0 0 0 0 0 0 0 0 0 0 0 0 0 0 7 0 0 0
0 0 0 0 0 0 0 0 0 0 0 0 0 0 0 0 0 0 0 0 0 0 0 0 0 0 0 1 0 0 0 0 0 0 0 0 0 0 0 0 0 0 4 3 0
0 0 0 0 0 0 0 0 0 0 0 0 0 0 0 0 0 0 0 0 0 0 0 0 0 0 2 5 0 0 0 0 0 0 0 0 0 0 0 2 0 0 4 11 0
0 0 0 0 0 0 0 0 0 0 0 0 0 0 0 0 0 0 0 0 0 0 0 0 0 0 1 0 0 0 0 0 0 0 0 0 0 0 0 0 0 38 31 17 9
0 0 0 0 0 0 0 0 0 0 0 0 0 0 0 0 0 0 0 0 0 0 0 0 0 0 0 0 0 0 0 0 0 0 0 0 0 0 0 0 0 199 190 28 13
0 0 0 0 0 0 0 0 0 0 0 0 0 0 0 0 0 0 0 0 0 0 0 0 0 0 0 0 0 0 0 0 0 0 0 0 0 0 0 0 0 254 188 25 52
0 0 0 0 0 0 0 0 0 0 0 0 0 0 0 0 0 0 0 0 0 0 0 0 0 0 0 0 0 0 0 0 0 0 0 0 0 0 0 0 0 43 94 66 72
0 0 0 0 0 0 0 0 0 0 0 0 0 0 0 0 0 0 0 0 0 0 0 0 0 0 0 0 0 0 0 0 0 0 0 0 0 0 0 0 0 1 72 15 41
0 0 0 0 0 0 0 0 0 0 0 0 0 0 0 0 0 0 0 0 0 0 0 0 0 0 0 0 0 3 1 0 0 0 0 0 0 0 0 0 0 10 79 44 104
0 0 0 0 0 0 0 0 0 0 0 0 0 0 0 0 0 0 0 0 0 0 0 0 0 0 16 12 4 0 0 3 1 0 0 0 0 0 0 0 0 6 6 15 1
0 0 0 0 0 0 0 0 0 0 0 0 0 0 0 0 0 0 0 0 11 36 0 0 0 0 2 2 10 0 0 0 0 0 0 0 0 0 0 0 1 1 0 0 0
0 0 0 0 0 0 0 0 0 0 0 0 0 0 0 0 0 0 0 0 2 0 23 0 0 0 0 0 0 0 6 0 0 0 0 0 0 0 0 0 0 2 0 0 0
0 0 0 0 0 0 0 0 0 0 0 0 0 0 0 0 0 1 0 0 2 0 0 0 0 0 0 0 0 0 0 2 0 0 0 0 0 0 0 0 0 12 8 0 0
24 39 0 0 0 0 36 47 0 0 0 0 0 0 0 4 3 1 0 0 0 0 0 0 0 0 0 2 0 8 32 32 21 2 0 0 0 3 0 0 0 22 4 0 0
0 19 0 0 0 49 26 15 0 0 0 0 43 23 17 19 9 1 0 0 0 0 0 0 0 0 0 0 9 19 38 46 15 0 2 6 0 8 0 0 0 2 0 2 2
0 0 0 0 12 59 2 17 33 50 38 0 58 62 45 52 0 0 0 8 3 0 0 0 0 0 3 4 1 0 0 11 32 8 1 1 0 0 0 0 0 0 0 0 0
0 0 0 0 80 78 285 266 154 250 93 33 57 51 20 20 42 9 8 0 0 0 0 0 0 0 0 0 0 0 1 16 16 0 0 0 0 0 0 0 0 0 0 0 0
CIN
0 0 0 0 0 0 0 0 0 0 0 0 0 0 0 0 0 0 0 0 0 0 0 0 0 0 -290 -164 -225 -288 -120 -55 -90 0 -54 0 -54 -51 -119 -99 -145 -181 -159 -228 -406
0 0 0 0 0 0 0 0 0 0 0 0 0 0 0 0 0 0 0 0 0 0 0 0 0 0 0 0 0 -14 -8 -68 0 0 0 0 0 0 -37 -76 -102 -125 -283 -374 -427
0 0 0 0 0 0 0 0 0 0 0 0 0 0 0 0 0 0 0 0 0 0 0 0 0 0 0 0 0 0 0 0 -49 -40 -53 -44 -37 -9 0 -66 -112 -68 -192 -344 -406
0 0 0 0 0 0 0 0 0 0 0 0 0 0 0 0 0 0 0 0 0 0 0 0 0 0 0 0 0 -118 -125 -112 -52 -63 -57 -40 -64 -7 0 -60 -23 -189 -234 -369 -385
0 0 0 0 0 0 0 0 0 0 0 0 0 0 0 0 0 0 0 0 0 0 0 0 0 0 0 0 0 -83 -90 -85 -63 -73 -69 -70 -59 -33 0 -255 -270 -257 -273 -286 -366
0 0 0 0 0 0 0 0 0 0 0 0 0 0 0 0 0 0 0 0 0 0 0 0 0 0 0 0 0 0 -40 -83 -70 -57 0 0 -78 -173 -252 -325 -293 -277 -277 -350 -369
0 0 0 0 0 0 0 0 0 0 0 0 0 0 0 0 0 0 0 0 0 0 0 0 0 0 0 0 0 0 -51 -58 -53 -60 0 0 -10 -8 -83 -277 -225 -237 -303 -347 -357
0 0 0 0 0 0 0 0 0 0 0 0 0 0 0 0 0 0 0 0 0 0 0 0 0 0 0 0 0 0 0 -10 0 0 0 0 0 -139 0 -301 -254 -277 -291 -303 -303
0 0 0 0 0 0 0 0 0 0 0 0 0 0 0 0 0 0 0 0 0 0 0 0 0 0 0 0 0 0 0 0 0 0 0 0 0 -210 -342 -349 -317 -276 -254 -273 -275
0 0 0 0 0 0 0 0 0 0 0 0 0 0 0 0 0 0 0 0 0 0 0 0 0 0 0 0 0 0 0 0 0 0 0 0 0 -206 -313 -304 -274 -294 -307 -282 -305
0 0 0 0 0 0 0 0 0 0 0 0 0 0 0 0 0 0 0 0 0 0 0 0 0 0 -28 0 0 0 0 0 0 0 0 0 0 0 0 -1 -2 -290 -2 0 0
0 0 0 0 0 0 0 0 0 0 0 0 0 0 0 0 0 0 0 0 0 0 0 0 0 0 0 -17 0 0 0 0 0 0 0 0 0 0 0 0 0 0 -158 -174 0
0 0 0 0 0 0 0 0 0 0 0 0 0 0 0 0 0 0 0 0 0 0 0 0 0 0 -79 -51 0 0 0 0 0 0 0 0 0 0 0 -122 0 0 -212 -314 -41
0 0 0 0 0 0 0 0 0 0 0 0 0 0 0 0 0 0 0 0 0 0 0 0 0 0 -15 0 -5 0 0 0 0 0 0 0 0 0 0 0 0 -238 -269 -263 -286
0 0 0 0 0 0 0 0 0 0 0 0 0 0 0 0 0 0 0 0 0 0 0 0 0 0 0 0 0 0 0 0 0 0 0 0 0 0 0 0 0 -163 -200 -264 -322
0 0 0 0 0 0 0 0 0 0 0 0 0 0 0 0 0 0 0 0 0 0 0 0 0 0 0 0 0 0 0 0 0 0 0 0 0 0 0 0 0 -200 -226 -255 -268
0 0 0 0 0 0 0 0 0 0 0 0 0 0 0 0 0 0 0 0 0 0 0 0 0 0 0 0 0 0 0 0 0 0 0 0 0 0 0 0 0 -183 -223 -225 -232
0 0 0 0 0 0 0 0 0 0 0 0 0 0 0 0 0 0 0 0 0 0 0 0 0 0 0 0 0 0 0 0 0 0 0 0 0 0 0 0 0 -17 -248 -287 -257
0 0 0 0 0 0 0 0 0 0 0 0 0 0 0 0 0 0 0 0 0 0 0 0 0 0 0 0 0 -3 -7 0 0 0 0 0 0 0 0 0 0 -249 -252 -216 -172
0 0 0 0 0 0 0 0 0 0 0 0 0 0 0 0 0 0 0 0 0 0 0 0 0 0 -76 -52 -16 0 0 -14 -4 -1 0 0 0 0 0 0 0 -243 -236 -226 -18
0 0 0 0 0 0 0 0 0 0 0 0 0 0 0 0 0 0 0 0 -168 -115 0 0 0 -6 -1 -3 -29 0 0 0 0 0 0 0 0 -36 0 0 -84 -201 0 0 0
0 0 0 0 0 0 0 0 0 0 0 0 0 0 0 0 0 0 0 0 -114 0 -67 0 0 0 0 0 0 0 -91 -5 -1 0 0 0 0 0 0 0 0 -176 0 0 0
0 0 0 0 0 0 0 0 0 0 0 0 0 0 0 0 0 -26 0 0 -41 0 0 0 0 0 0 0 0 0 -3 -76 0 0 0 0 0 0 0 0 0 -182 -244 -22 0
-139 -110 0 0 0 0 -208 -140 0 0 0 0 0 -64 0 -146 -42 -49 0 0 0 0 0 0 0 0 0 -13 0 -32 -48 -68 -58 -19 0 0 0 -20 0 0 0 -191 -107 -46 0
0 -243 0 0 -15 -215 -258 -234 0 0 0 -3 -108 -140 -125 -96 -82 -77 0 0 0 0 0 0 0 0 0 -14 -57 -54 -39 -37 -43 -3 -20 -37 0 -41 -11 0 0 -150 -27 -113 -158
0 0 0 0 -310 -173 -58 -188 -132 -142 -152 -3 -83 -111 -116 -85 0 0 0 -237 -87 0 0 0 0 0 -42 -45 -60 0 0 -51 -47 -48 -97 -34 0 0 0 0 0 0 0 0 0
0 0 0 0 -172 -141 -116 -125 -116 -163 -121 -168 -108 -118 -128 -151 -183 -193 -224 0 0 0 0 0 0 0 0 0 0 -1 -9 -29 -53 -1 0 0 0 0 0 0 0 0 0 0 0
Wind_Speed
19 19 19 19 17 18 17 17 17 17 16 16 17 16 16 16 11 11 19 18 16 18 10 12 12 13 13 14 14 14 14 16 14 14 16 16 15 15 14 15 14 13 16 17 16
18 18 18 19 20 19 18 19 19 18 18 18 17 17 16 15 8 14 17 15 14 15 9 10 12 12 15 16 15 14 15 15 14 16 16 15 16 14 14 10 11 12 16 15 14
17 16 17 17 17 17 18 18 19 19 19 18 18 17 15 12 7 6 11 13 15 12 9 10 14 14 17 15 13 15 16 17 17 18 20 21 18 13 7 6 7 7 11 12 12
18 16 15 18 19 18 18 18 19 19 19 18 17 16 14 8 5 7 9 14 14 7 8 11 13 15 16 15 13 16 19 19 19 17 20 21 20 19 7 4 15 10 9 8 7
20 17 15 15 16 18 19 19 19 19 18 17 16 15 8 8 9 10 10 12 11 6 7 10 14 15 16 16 15 11 16 16 10 21 22 21 23 17 14 23 18 12 9 7 6
21 18 17 14 16 15 16 18 18 17 18 17 16 14 9 6 12 12 9 12 8 6 6 10 14 16 17 17 16 19 14 24 20 21 25 21 19 17 17 17 15 13 11 9 8
22 20 18 17 15 16 14 15 16 14 16 16 14 11 10 7 11 10 9 6 8 6 8 12 15 18 19 18 20 21 18 18 19 19 24 20 19 19 16 14 13 12 12 12 10
25 22 20 18 15 14 15 13 15 14 14 15 11 10 12 14 15 14 7 6 8 7 11 13 16 21 18 20 20 20 18 20 20 21 22 20 21 18 19 16 14 15 14 13 12
27 26 23 20 17 13 14 12 13 14 16 17 10 9 9 15 15 13 8 9 9 11 15 15 17 17 18 18 22 21 21 22 23 24 24 22 22 20 19 17 17 15 15 15 13
30 28 25 22 19 15 12 16 17 16 15 16 19 6 2 8 12 10 7 8 9 14 13 14 15 16 16 17 21 22 23 24 26 24 24 23 20 21 19 17 16 15 16 15 14
32 30 28 25 21 16 13 16 15 16 13 16 15 13 11 16 15 8 9 9 11 11 11 14 13 16 12 15 20 23 25 27 27 24 22 23 20 20 18 17 17 16 14 15 15
32 30 28 26 22 11 14 15 17 17 13 15 18 19 21 18 11 5 8 8 7 5 9 13 11 15 14 19 22 24 23 27 27 22 23 24 22 19 17 15 14 13 14 14 16
34 31 29 26 21 14 13 14 14 17 16 15 14 16 19 18 22 23 13 11 11 8 6 7 11 14 14 19 23 22 21 26 28 25 24 21 24 21 18 16 16 14 10 13 16
35 32 30 25 16 14 11 13 17 16 17 17 15 14 15 12 19 16 12 9 9 11 7 5 11 7 11 21 20 28 26 23 23 27 29 20 30 21 17 17 20 19 17 10 12
36 33 29 22 17 11 11 18 11 14 15 16 16 15 12 13 13 10 12 8 11 9 7 9 6 4 4 5 19 14 25 29 25 22 24 22 26 25 19 16 17 16 16 14 13
37 33 27 16 13 12 18 13 11 13 14 14 13 13 13 9 5 14 11 10 10 5 2 8 10 6 8 9 16 25 26 24 23 21 28 28 24 24 17 13 14 13 15 12 12
39 33 21 14 11 15 16 10 13 11 14 16 12 10 9 11 8 5 11 10 8 13 10 10 6 8 10 14 18 17 20 23 20 19 20 23 26 27 20 13 10 8 11 11 11
39 27 18 17 16 16 11 10 12 12 13 16 14 12 11 12 14 14 11 13 13 16 17 15 18 16 13 14 17 18 20 20 17 17 19 22 18 26 18 17 14 8 9 9 9
34 21 18 17 15 14 8 9 11 10 15 16 14 14 15 13 14 15 15 12 15 13 16 17 16 16 17 15 19 22 21 21 26 24 23 24 25 23 18 14 13 9 7 6 7
26 19 17 14 8 12 10 11 11 10 16 15 14 14 14 15 14 16 14 16 17 19 16 16 17 16 15 16 21 18 18 24 24 18 18 24 27 24 14 11 9 6 6 6 7
19 14 16 13 14 12 12 12 14 15 13 13 13 13 13 16 16 18 18 17 18 19 19 17 17 19 16 17 17 20 22 23 21 19 16 29 23 18 14 6 4 4 5 7 7
18 14 16 15 13 13 13 13 15 16 12 15 12 12 13 16 18 20 19 17 19 19 19 17 19 19 16 19 19 19 20 17 21 20 18 20 31 24 16 8 7 8 7 7 8
18 16 16 14 14 15 18 17 15 16 16 11 12 13 14 16 18 18 21 17 17 18 18 15 19 24 22 19 22 18 19 18 17 20 18 24 27 23 16 10 6 5 6 5 6
16 15 15 15 15 16 16 13 14 13 13 12 12 13 15 19 20 19 24 21 21 21 21 18 21 19 18 19 21 15 21 21 20 22 22 20 18 27 15 7 6 4 4 5 5
16 15 15 16 15 18 14 15 14 11 14 14 15 15 16 20 22 23 24 24 23 22 21 20 17 20 16 15 16 20 20 21 15 16 20 30 21 29 19 10 4 3 5 5 6
16 17 18 17 17 16 13 14 14 16 16 17 14 15 17 20 21 26 24 23 22 22 20 20 20 23 23 20 15 13 24 31 3 6 20 23 30 25 21 10 6 4 5 5 8
18 17 17 18 17 15 15 17 17 19 16 16 10 16 19 21 21 21 20 19 19 21 22 20 21 23 22 22 22 15 21 23 20 21 24 24 23 20 15 13 10 10 10 12 11
Wind_Direction
316 314 315 312 302 305 296 294 290 285 281 278 277 278 279 272 287 82 139 124 116 108 39 49 264 273 311 317 233 253 312 291 310 294 302 339 341 336 347 359 31 40 16 29 77
314 311 310 313 315 308 300 304 301 299 300 300 301 304 306 300 345 132 137 116 95 96 14 21 307 5 324 329 332 319 329 332 314 297 305 320 350 13 1 38 37 40 14 45 73
311 304 307 305 303 296 292 295 301 305 311 313 310 314 313 328 328 16 104 111 111 90 6 3 272 332 327 337 346 348 341 316 292 287 289 291 335 22 73 62 76 60 38 38 55
315 305 298 305 307 301 293 296 299 300 317 311 306 312 317 358 304 4 350 120 118 74 27 13 2 342 336 351 353 340 294 232 325 346 323 326 344 349 67 101 357 24 43 48 62
319 308 296 292 292 296 296 294 298 298 316 291 290 299 330 297 315 326 347 106 109 76 45 14 5 352 340 343 352 16 270 284 5 330 340 340 328 341 358 312 337 20 41 64 69
320 310 300 288 287 277 274 278 275 266 273 263 278 283 289 320 295 316 47 101 104 85 6 6 356 351 326 335 350 338 339 293 315 317 342 344 352 349 355 356 3 21 52 53 49
319 311 302 292 280 279 258 249 253 221 253 266 276 285 282 329 298 347 53 75 101 75 346 344 334 329 325 327 336 332 331 334 339 341 341 351 347 355 4 16 22 27 28 31 37
318 312 303 294 279 270 260 230 230 199 171 274 306 294 274 273 271 279 339 335 291 316 327 333 334 313 330 323 333 336 343 330 340 342 345 352 338 359 356 7 14 13 15 24 22
319 314 307 296 282 256 258 224 165 70 69 93 73 321 19 278 277 271 309 305 299 302 312 320 330 333 326 329 325 332 325 327 323 334 344 344 340 351 357 1 1 11 13 9 14
320 316 310 301 286 265 236 98 57 45 26 145 212 347 339 6 284 304 344 335 317 306 331 337 338 334 341 334 319 324 323 325 321 331 339 340 344 349 357 1 4 9 7 8 16
320 316 312 304 291 256 94 78 86 76 81 120 95 83 306 256 264 340 17 357 333 333 336 336 344 334 345 340 330 324 319 317 321 328 335 333 339 342 347 356 357 4 25 24 26
318 313 309 302 291 200 87 80 60 45 145 156 162 175 196 251 237 35 43 40 13 40 4 336 340 329 335 332 330 329 322 317 322 332 326 322 328 341 348 352 4 17 15 24 22
318 312 306 300 299 46 70 84 33 296 77 137 115 134 148 132 168 181 103 77 95 94 63 13 334 331 326 326 322 335 332 325 323 332 328 331 321 326 336 344 348 5 26 15 12
317 311 306 297 349 339 42 25 262 86 32 70 79 108 105 83 222 148 124 86 80 147 104 56 359 355 327 315 322 311 323 333 335 325 317 330 315 330 332 334 336 340 352 17 19
314 308 303 308 316 345 360 272 354 10 10 42 71 65 64 108 348 340 116 53 147 148 39 179 166 163 190 228 324 322 325 319 324 328 327 327 317 323 330 331 335 341 352 360 3
312 305 292 331 324 303 278 300 350 340 350 5 50 66 68 67 24 323 20 7 19 48 47 215 345 344 219 237 323 317 319 323 326 328 315 319 314 322 324 327 338 347 350 6 355
311 302 304 325 327 284 282 340 326 334 338 340 16 54 76 41 52 25 344 0 18 5 9 11 10 355 341 338 338 340 332 328 328 323 321 331 315 313 326 338 345 355 4 21 22
310 302 309 296 284 286 303 325 316 333 331 337 1 23 25 15 358 359 1 351 9 360 354 356 355 360 10 356 347 337 329 328 327 326 329 335 331 320 335 333 341 359 4 9 21
307 307 303 294 281 283 312 298 313 325 327 323 336 351 346 356 355 351 352 1 355 11 357 354 356 360 356 357 346 336 328 331 324 328 331 329 325 325 338 339 343 353 9 358 46
305 300 306 298 314 293 294 290 309 327 321 330 332 347 349 351 356 352 357 352 348 346 352 350 342 352 351 349 343 340 338 326 325 335 338 332 319 325 352 350 347 4 57 59 60
310 302 300 294 295 293 287 284 296 308 325 333 338 346 352 347 350 345 343 349 347 345 348 344 339 343 348 344 341 336 330 330 329 328 338 320 325 341 354 13 75 54 70 78 71
299 292 292 291 296 295 294 288 301 308 328 316 334 345 350 347 342 346 353 358 355 355 345 347 340 334 334 338 338 336 330 332 325 327 331 331 310 325 3 51 84 106 97 82 66
294 287 286 292 294 293 288 286 293 305 309 327 337 336 339 348 344 351 352 6 4 357 351 350 338 332 334 338 335 328 323 323 330 325 319 316 315 326 353 16 73 103 97 70 44
293 286 288 293 292 294 295 291 294 305 319 339 349 345 341 337 341 343 342 354 354 351 350 349 335 324 314 323 336 337 325 317 316 313 313 313 324 304 336 5 23 79 79 43 24
294 290 288 289 290 292 288 289 293 298 315 324 329 339 343 336 336 338 344 348 354 357 360 1 353 344 341 339 338 329 326 320 314 311 308 308 311 300 325 329 340 61 18 15 11
290 283 280 279 285 288 289 293 292 297 306 307 324 334 337 336 341 337 344 348 353 2 7 10 6 355 342 346 351 346 330 294 301 313 310 316 294 319 329 347 353 7 357 4 353
297 291 286 278 285 287 286 286 288 295 317 318 346 335 334 337 345 352 357 1 6 7 9 12 9 5 4 1 349 1 346 330 332 323 309 310 318 334 356 345 354 342 348 343 344